Theta_e
288 290 291 291 292 293 291 292 289 293 295 301 305 309 313 315 315 315 315 315 315 315 315 315 314 314 313 313 313 312 311 309 307 308 309 309 309 309 309 308 308 309 308 307
285 290 292 291 295 295 295 296 296 298 298 305 308 312 311 311 311 310 310 310 310 310 309 307 308 308 309 309 309 308 307 306 308 308 308 307 306 306 305 305 304 305 305 305
285 292 292 289 293 294 297 299 298 291 300 305 304 306 308 307 308 306 307 307 307 307 307 306 305 305 304 305 306 305 306 307 307 307 306 305 305 303 302 301 301 303 304 305
287 290 281 294 299 300 297 300 301 301 303 304 304 305 306 307 305 304 305 304 304 303 303 304 305 305 305 306 306 305 305 306 305 305 304 303 301 300 302 302 300 300 303 305
283 281 292 294 299 298 297 298 303 301 300 301 301 301 301 304 304 303 303 303 303 305 304 304 304 305 305 304 304 304 304 303 304 303 301 300 299 297 297 299 301 301 303 302
288 283 282 292 302 304 302 290 301 301 299 299 300 291 294 301 301 301 302 303 303 304 304 304 303 304 303 302 302 302 302 303 302 301 300 300 300 296 299 300 297 297 300 301
287 288 292 297 304 305 290 291 301 301 300 299 295 296 299 301 300 301 302 302 303 302 302 301 302 303 301 301 300 302 303 301 301 299 300 299 298 296 296 297 294 293 295 297
289 286 286 305 305 298 298 302 298 298 298 296 297 298 298 299 300 300 300 300 301 300 300 301 301 301 299 298 300 302 302 300 298 297 297 295 292 291 291 291 289 290 290 291
290 290 302 303 300 303 300 297 296 296 296 297 296 296 297 297 298 298 298 298 299 298 298 299 300 299 297 298 301 301 300 297 295 294 294 292 289 287 287 288 288 288 289 289
291 296 300 298 299 298 298 295 295 296 295 295 294 296 295 297 297 297 297 297 298 298 297 297 299 299 297 300 300 298 296 298 295 292 290 289 290 286 284 286 286 286 285 284
293 296 298 297 296 296 295 295 294 294 295 295 295 295 296 296 297 297 297 297 297 296 296 296 297 297 297 299 299 295 294 294 296 292 288 287 288 287 286 286 286 285 285 285
288 295 295 294 296 296 294 294 294 293 294 296 297 296 297 297 297 297 296 296 295 295 294 297 296 296 296 297 297 293 292 293 293 293 291 291 289 288 289 289 288 288 288 287
293 294 294 294 294 295 293 294 295 295 296 295 298 298 298 297 298 298 297 296 294 294 294 294 296 296 297 297 295 293 291 295 295 293 291 288 287 286 285 288 290 289 288 289
298 296 292 293 291 295 295 296 298 297 298 298 298 298 297 296 296 296 295 295 294 294 294 294 294 294 297 297 295 294 292 295 295 293 291 289 288 287 286 286 286 287 289 289
296 296 294 295 295 295 297 297 296 295 296 297 297 295 294 292 292 292 293 293 293 292 293 293 294 293 294 294 292 291 290 293 291 291 289 288 288 288 287 288 288 288 288 289
295 295 295 294 294 296 296 296 295 295 295 295 294 294 294 294 293 293 293 293 290 289 291 292 292 293 293 291 290 289 288 291 291 290 289 287 287 286 286 286 286 287 287 287
291 291 293 293 293 294 295 296 295 294 294 293 293 293 293 292 291 290 289 290 290 290 290 290 290 292 292 290 291 289 289 288 289 286 286 286 286 285 285 285 285 285 285 287
296 296 296 295 295 295 295 295 295 295 294 295 295 293 292 290 288 288 289 289 289 288 288 289 291 291 291 291 290 289 288 287 287 285 285 285 285 285 285 284 285 284 285 287
295 294 295 294 294 294 294 294 294 295 296 295 294 292 292 292 291 291 290 289 288 286 287 289 293 290 289 290 290 289 288 288 287 286 286 287 284 284 284 284 284 284 284 286
294 295 295 294 295 294 294 295 295 295 295 295 295 294 292 292 291 290 289 287 287 286 289 290 289 288 287 290 290 288 288 288 287 286 286 285 284 284 283 284 285 284 284 285
294 294 293 293 294 295 295 295 295 295 296 296 294 292 290 290 291 290 287 285 287 289 288 289 286 285 287 287 290 289 289 288 287 286 286 284 284 284 284 284 284 285 284 284
295 294 293 293 293 293 294 294 296 296 295 294 294 294 293 292 292 291 290 287 287 289 287 286 284 284 284 289 288 288 288 287 286 285 285 284 283 282 283 284 284 284 284 283
295 295 295 294 293 293 295 295 295 295 295 295 295 294 291 290 290 288 285 287 286 287 286 284 283 284 284 287 288 287 287 286 284 284 284 285 284 284 283 282 284 284 283 282
297 296 294 295 294 293 291 293 294 294 294 296 296 294 292 289 288 288 287 287 287 287 286 284 284 284 284 285 285 284 285 285 285 284 283 285 284 284 284 283 283 284 283 283
297 296 296 295 293 293 293 293 293 294 294 294 293 294 293 292 289 288 287 285 286 286 285 283 284 284 285 286 284 283 282 282 285 285 283 280 279 280 283 283 283 283 282 281
297 297 297 296 295 293 292 292 291 291 291 291 292 293 292 291 290 289 289 289 288 287 286 286 287 286 286 285 285 284 283 283 283 284 285 281 281 279 281 282 283 283 281 281
299 297 300 298 297 295 294 293 292 291 292 292 292 292 291 291 291 290 290 289 289 288 286 285 286 286 286 285 285 285 284 283 283 283 284 285 284 280 280 279 280 282 281 281
Wind_Speed
17 18 14 10 9 10 13 14 5 6 4 7 3 12 21 22 23 24 23 23 22 20 18 18 18 18 17 16 15 14 13 12 9 7 7 8 9 10 9 10 10 10 10 10
14 17 14 7 14 12 1 12 9 6 1 11 3 13 21 24 25 25 23 22 21 21 21 18 18 16 17 16 14 11 10 9 8 10 11 9 9 8 9 9 8 10 8 8
5 13 9 4 13 11 9 8 6 4 5 12 13 16 20 25 25 25 23 21 20 20 17 15 15 16 16 14 12 11 11 11 11 10 11 10 9 9 7 7 7 7 6 7
5 8 2 7 14 12 17 13 2 6 13 16 20 19 19 18 26 24 22 22 20 17 16 15 15 16 15 13 12 11 11 12 11 11 11 9 9 8 8 6 5 6 7 7
1 2 8 15 8 11 21 8 10 14 21 25 26 29 19 17 22 22 23 18 17 16 15 16 16 14 15 14 12 11 11 12 11 11 9 8 9 7 6 5 8 7 5 8
5 4 6 4 17 22 17 7 13 16 21 27 27 20 9 13 21 22 20 18 18 18 16 16 13 13 14 12 12 11 11 11 10 9 9 10 7 6 5 7 8 6 7 8
3 4 5 7 23 16 5 9 14 16 10 19 21 14 17 17 20 20 19 20 20 18 15 12 12 13 14 12 11 10 11 11 8 7 11 10 11 7 8 9 7 7 8 9
2 4 5 3 9 4 14 19 19 17 22 26 24 20 21 19 19 18 19 18 17 15 13 11 10 12 12 11 9 10 10 9 11 11 10 8 9 8 10 8 8 8 7 6
6 3 6 14 16 18 20 25 20 21 17 27 23 20 20 18 17 16 17 16 14 14 14 12 11 10 11 7 10 9 9 11 11 10 9 9 10 10 8 8 8 7 7 7
6 11 18 20 21 21 22 21 19 20 18 19 24 18 19 16 16 15 14 14 13 14 14 12 11 10 9 8 8 9 8 10 8 10 10 10 8 8 7 7 7 6 6 6
6 11 18 16 20 23 23 23 23 21 21 20 18 16 14 15 15 15 14 13 12 12 12 13 11 10 7 9 7 8 7 6 9 7 8 8 9 7 6 5 4 5 6 5
5 9 14 11 15 23 23 22 23 25 19 15 10 14 15 15 14 14 13 11 10 9 10 13 11 11 9 7 7 6 5 5 6 7 7 6 5 4 6 3 4 5 6 6
5 15 20 18 17 16 25 21 21 22 18 20 11 10 14 15 14 14 13 12 10 9 8 8 12 11 9 8 6 6 6 6 8 9 8 6 5 3 3 3 5 7 5 3
7 11 15 13 14 16 24 22 23 18 13 13 13 12 12 13 12 11 12 11 9 8 10 9 11 11 8 7 6 6 5 9 7 7 7 5 3 2 2 2 3 5 5 3
15 18 20 20 21 19 18 17 18 18 15 14 13 13 13 13 13 12 12 12 11 10 9 9 10 8 8 8 8 6 4 4 5 5 5 5 4 3 2 3 4 4 5 7
17 19 18 19 17 15 14 17 16 17 16 15 14 13 13 13 14 13 13 13 10 8 8 8 8 8 6 5 7 6 6 13 7 4 4 4 3 3 3 3 4 4 5 6
19 14 15 18 16 16 13 14 15 15 16 15 14 14 14 15 15 15 13 12 11 10 8 8 8 10 9 7 7 5 5 6 9 6 5 5 4 5 5 5 5 4 4 6
13 12 12 7 12 16 16 16 15 15 14 15 15 14 13 13 12 12 10 9 8 8 7 7 7 7 7 7 7 5 5 5 5 5 5 6 5 5 5 5 5 5 4 5
8 8 3 14 14 14 14 14 13 13 13 13 13 12 11 10 9 8 8 8 8 7 5 7 12 9 8 8 7 6 6 6 6 5 5 6 5 5 5 5 5 5 5 5
13 6 13 15 15 13 14 12 13 14 12 12 12 11 13 13 12 11 9 8 6 4 7 7 8 8 9 10 10 5 5 6 6 5 6 5 5 5 5 7 6 5 6 6
12 12 13 12 13 13 12 13 12 12 10 11 13 13 12 11 12 9 7 5 5 6 8 10 7 5 5 6 9 7 8 8 8 6 5 5 6 5 5 5 6 5 5 5
14 12 12 12 11 11 9 8 10 11 12 12 10 9 9 9 9 9 7 6 3 6 6 5 5 6 4 10 6 7 8 8 6 6 6 6 5 5 5 5 5 5 5 5
12 12 11 10 9 9 9 10 10 10 10 7 9 9 8 6 6 6 6 6 5 7 5 4 3 6 5 5 5 6 6 7 6 5 5 5 5 5 4 5 5 5 5 5
10 10 10 8 8 8 8 6 7 8 7 7 11 11 10 8 7 6 6 8 8 7 5 4 6 8 6 5 6 6 5 5 5 5 4 6 5 5 5 5 5 5 5 6
11 9 8 7 8 6 7 7 7 7 7 7 8 8 10 6 7 5 6 5 8 6 5 2 1 3 3 5 6 6 5 5 5 5 4 3 3 3 4 4 4 5 4 5
8 5 7 8 8 6 5 5 5 5 5 4 5 8 7 7 8 7 6 7 5 6 4 3 4 5 5 6 6 6 4 3 4 4 5 4 3 2 2 2 3 4 4 4
5 6 5 7 7 8 7 7 6 5 5 6 8 7 7 5 6 6 6 6 5 5 5 4 5 3 4 5 6 6 5 3 4 4 5 5 4 3 2 1 3 4 4 4
Wind_Direction
263 261 247 246 274 227 214 184 152 224 213 153 149 132 120 111 106 103 102 101 105 107 105 104 101 99 98 97 92 88 89 85 85 82 75 64 54 57 52 44 38 38 53 50
276 242 248 240 248 182 303 162 134 226 206 135 177 138 112 108 107 103 103 103 101 97 93 92 96 97 95 93 91 89 89 90 81 73 71 66 58 56 52 44 36 47 40 57
276 163 180 247 179 175 120 103 93 27 186 143 122 103 111 110 104 106 105 100 95 92 89 89 89 90 85 81 80 79 84 81 80 75 73 66 57 51 55 44 34 44 35 72
275 137 104 335 136 121 114 102 174 136 144 116 101 94 86 98 104 102 99 95 92 90 88 87 85 81 82 77 74 75 76 78 73 70 69 64 57 39 38 47 44 37 32 50
278 13 142 39 86 110 118 98 138 110 106 111 101 86 69 90 95 97 95 92 92 86 82 80 76 77 81 78 75 70 76 76 74 72 69 64 61 42 20 40 39 29 27 55
344 42 77 223 114 120 111 76 114 113 127 123 111 92 94 92 93 91 86 86 85 76 74 72 70 76 79 78 76 71 64 81 79 73 73 69 67 43 41 52 41 23 24 56
338 80 92 248 163 187 85 144 129 107 85 101 95 102 119 96 89 88 88 86 81 76 75 71 68 76 77 78 75 77 73 70 73 73 66 49 56 39 27 55 42 22 31 27
319 69 151 204 218 303 125 118 111 106 112 101 105 108 99 100 95 92 92 86 82 85 78 68 64 82 82 80 80 81 78 78 69 63 59 52 49 41 36 41 34 33 19 18
14 358 40 55 87 104 109 115 117 109 109 110 104 102 98 101 100 92 90 89 88 87 85 78 74 75 84 77 95 97 94 86 78 68 63 65 57 45 39 32 36 27 20 13
349 11 87 80 80 87 95 100 106 103 100 97 106 104 106 107 105 106 100 99 100 103 100 93 89 85 80 88 91 79 70 90 84 80 65 48 64 55 41 31 28 26 21 11
2 24 74 74 97 103 102 103 97 89 97 97 101 103 113 112 108 102 99 100 101 104 104 101 92 80 80 94 81 79 75 71 98 89 86 74 61 51 53 38 34 35 26 5
9 359 79 83 103 113 109 107 107 109 99 74 74 101 101 98 99 100 101 100 97 94 97 114 112 108 93 80 64 67 62 71 93 90 74 71 84 73 53 52 7 17 25 32
73 74 78 87 86 99 103 106 109 105 103 106 71 71 91 101 105 106 101 97 93 90 95 89 114 105 107 104 88 71 62 67 99 91 82 81 71 56 47 345 304 284 314 19
85 86 75 80 95 99 103 103 100 96 98 116 129 119 105 99 99 96 102 108 101 87 84 90 90 94 117 107 104 105 83 70 91 109 114 117 115 117 74 19 357 349 328 253
74 84 99 105 104 104 103 112 118 130 138 111 96 97 95 92 88 85 80 77 74 70 67 67 100 101 93 94 92 97 76 103 104 115 125 139 139 134 124 60 21 10 353 10
91 89 91 89 92 105 125 134 117 107 104 103 100 95 89 86 82 76 69 64 68 62 50 46 48 69 87 103 96 66 54 67 75 88 120 119 109 106 104 82 61 33 21 9
102 102 122 125 131 140 133 107 104 105 102 101 100 95 89 84 79 74 69 64 59 52 45 51 48 40 32 36 107 90 71 63 65 51 54 52 59 60 53 53 47 50 33 24
84 109 123 132 101 105 105 106 104 103 105 108 103 100 97 94 95 95 94 89 78 64 47 40 49 36 26 33 80 80 85 82 85 84 71 58 47 57 63 55 48 37 23 23
127 171 143 91 90 101 106 109 113 115 105 104 108 107 107 108 110 105 98 90 79 76 49 48 42 33 27 26 91 85 81 70 55 60 77 78 55 51 45 46 50 40 30 32
195 106 92 111 115 114 116 111 104 104 109 115 116 106 93 88 87 84 78 77 73 69 40 57 48 39 24 22 56 65 85 93 89 75 71 75 73 68 56 41 43 45 35 28
104 109 100 96 95 94 97 103 110 114 118 106 107 114 117 120 119 114 93 85 65 69 74 58 44 13 23 42 53 48 55 54 52 45 58 63 52 48 62 61 38 33 45 34
132 125 124 119 115 114 112 113 112 111 108 117 126 121 113 108 102 105 113 129 138 97 80 54 37 10 33 77 66 63 57 51 47 44 44 42 52 54 42 44 50 36 27 28
122 125 128 122 118 114 106 106 114 123 127 125 117 114 109 116 126 118 102 95 91 96 93 76 15 36 78 101 100 89 82 71 61 49 43 43 50 40 51 54 39 46 38 32
118 113 115 116 109 105 109 113 103 108 123 115 109 124 110 97 74 85 93 88 100 100 92 49 35 18 29 88 81 81 98 101 92 72 57 47 44 40 30 51 44 39 40 38
119 123 125 115 109 111 112 114 104 96 94 95 97 102 113 118 126 132 107 124 136 125 124 115 350 310 260 109 108 99 92 104 129 124 111 98 73 56 35 56 57 59 59 42
124 140 143 139 134 128 131 123 118 127 130 129 100 101 100 114 123 131 152 157 153 160 153 130 90 60 74 97 100 102 115 136 132 158 147 140 133 119 80 57 86 75 89 61
167 155 147 142 153 155 163 153 146 161 163 135 127 134 135 149 147 138 149 159 155 166 129 140 127 172 153 146 143 132 122 105 81 56 109 146 161 197 216 145 116 91 78 53